This is the latest recevied weather packets stored in our database for station/object N3FU-13. If no packets are shown the sender has not sent any weather packets the latest 1 day(s).
| Time | Temp. | Humidity | Pressure | Rain* | Wind** | Luminosity | Snow |
|---|---|---|---|---|---|---|---|
| 1777983125 | 22.22° C | 89% | 1015.3 hPa | 0 mm | 0.89 m/s, 71° | - | - |
| 1777982225 | 21.67° C | 89% | 1015.3 hPa | 0 mm | 0.89 m/s, 84° | - | - |
| 1777981325 | 21.67° C | 90% | 1015.1 hPa | 0 mm | 0.89 m/s, 86° | - | - |
| 1777980425 | 21.11° C | 91% | 1014.7 hPa | 0 mm | 0.45 m/s, 78° | - | - |
| 1777979525 | 21.11° C | 91% | 1014.4 hPa | 0 mm | 0.89 m/s, 65° | - | - |
| 1777978625 | 21.11° C | 91% | 1014.3 hPa | 0 mm | 0.45 m/s, 81° | - | - |
| 1777977725 | 21.11° C | 91% | 1014.3 hPa | 0 mm | 0.45 m/s, 88° | - | - |
| 1777977116 | 21.11° C | 90% | 1014.2 hPa | 0 mm | 0.45 m/s, 84° | - | - |
| 1777976825 | 21.11° C | 90% | 1014.2 hPa | 0 mm | 0.45 m/s, 84° | - | - |
| 1777976313 | 21.11° C | 91% | 1014.1 hPa | 0 mm | 0.45 m/s, 81° | - | - |
| 1777975925 | 21.11° C | 91% | 1014.1 hPa | 0 mm | 0.45 m/s, 81° | - | - |
| 1777975025 | 21.11° C | 90% | 1014 hPa | 0 mm | 0.45 m/s, 75° | - | - |
| 1777974125 | 21.11° C | 90% | 1013.9 hPa | 0 mm | 0.45 m/s, 59° | - | - |
| 1777973225 | 21.11° C | 90% | 1013.8 hPa | 0 mm | 0.45 m/s, 89° | - | - |
| 1777972332 | 21.11° C | 89% | 1013.7 hPa | 0 mm | 0.45 m/s, 130° | - | - |
| 1777971425 | 21.11° C | 88% | 1013.7 hPa | 0 mm | 0 m/s | - | - |
| 1777970525 | 21.11° C | 88% | 1013.6 hPa | 0 mm | 0.45 m/s, 92° | - | - |
| 1777969625 | 21.67° C | 88% | 1013.6 hPa | 0 mm | 0.89 m/s, 99° | - | - |
| 1777968725 | 21.67° C | 87% | 1013.5 hPa | 0 mm | 0.89 m/s, 92° | - | - |
| 1777967825 | 21.67° C | 87% | 1013.6 hPa | 0 mm | 0.89 m/s, 82° | - | - |
| 1777966925 | 21.67° C | 86% | 1013.7 hPa | 0 mm | 0.89 m/s, 98° | - | - |
| 1777966025 | 21.67° C | 86% | 1013.9 hPa | 0 mm | 0.89 m/s, 86° | - | - |
| 1777965125 | 21.67° C | 85% | 1014 hPa | 0 mm | 0.45 m/s, 62° | - | - |
| 1777964225 | 22.22° C | 84% | 1013.9 hPa | 0 mm | 0.45 m/s, 96° | - | - |
| 1777963325 | 22.22° C | 83% | 1014.1 hPa | 0 mm | 0.45 m/s, 71° | - | - |
* Rain latest hour (hover to see other rain measurements)
** Current wind speed in m/s (hover to see current wind gust speed)